Showing default

IRIDE-MS2-HEO-6, 64576

Orbit data source: Space-Track

IRIDE-MS2-HEO-6, 64576 is an Italian payload satellite in SSO that was launched on Mon, 23 Jun 2025 UTC via an FALCON 9 launch vehicle from the Air Force Western Test Range (AFWTR). Payload-class satellites include a variety of spacecraft equipped with specific instruments for various scientific and technological missions. These include communications satellites like Starlink; space stations such as the ISS; scientific satellites like the Hubble; Earth observation satellites from companies like Planet Labs, Umbra, and HawkEye 360; GPS; miniature CubeSats for education and research; and military/defense satellites.

Loading next visibility...
Identifier
64576, 2025-135BA
Orbit
SSO
Country
Flag of ITIT
Related business
Manufacturer
ArgoTec
Mission
Operational Civil Imaging
Bus & Motor
HAWK, Unknown motor
Mass
65 kg wet, 65 kg dry
Launch date (UTC)
2025-06-23 (7 months ago)
Launch vehicle
FALCON 9
Launch site
Air Force Western Test Range (AFWTR)
Object type
Payload
Rocket body
Debris
Shape & HBR
Box + 2 Pan, 3.0 m
Radar Cross Section
0.683 m², Medium (>0.1 m² and < 1m²)

Expand to show TLE details & history
Last TLE update: 5 hours ago

TLE from 5 hours ago
0 IRIDE-MS2-HEO-6
1 64576U 25135BA  26036.15027352  .00004293  00000-0  41364-3 0  9995
2 64576  97.7584 152.0629 0004502  55.9367 304.2279 14.93447169 34182
Epoch: 2026-02-05T03:36Z
TLE epoch observation values (Epoch: 2026-02-05T03:36:23.632Z)
Latitude
-0.00005°
Longitude
-37.34219°
Altitude
588.478 km
Speed
7.567 km/s
True Right ascension
10h 08m 15s
True Declination
0° 00' 00"
Sunlit
Object was in full shadow at epoch
Visualization orbit readout
Latitude
Unknown
Longitude
Unknown
Altitude
Unknown
Speed
Unknown
Apparent Right ascension
Unknown
Apparent Declination
Unknown
Sunlit
N/A
Visualization observer readout
Local Sidereal Time
10:49:20
Azimuth
Unknown
Elevation
Unknown
Doppler factor
Unknown
Orbital elements
Apogee altitude
587.348 km
Perigee altitude
581.079 km
Semi-major axis
6,962.35 km
Eccentricity
0.00045
Inclination
97.7584°
RAAN
152.0629°
Arg. of periapsis
55.9367°
True anomaly
304.18523°
Mean anomaly
304.2279°
Eccentric anomaly
304.20657°
Mean motion
3.73602 °/min
Orbital period
96.36 mins
BSTAR
0.00041364
Loading maneuver chart data...
Computing Atmospheric mass density...
Loading historical data...
Loading historical data...
Loading historical data...
Loading historical data...
Loading historical data...
Loading historical data...
Loading historical data...

Documentation

Showing up to 5 results
|